Regional Weather Roundup
Issued by NWS

Home | Current Version | Previous Version | Text Only | Print | Product List | Glossary On
Versions: 1 2 3 4 5 6 7 8 9 10 11 12 13 14 15 16 17 18 19 20 21 22 23 24 25 26 27
000
ASUS45 KCYS 240210
RWRWY

WYOMING REGIONAL WEATHER ROUNDUP
NATIONAL WEATHER SERVICE CHEYENNE WY
700 PM MST FRI FEB 23 2018

NOTE:  "FAIR" INDICATES FEW OR NO CLOUDS BELOW 12,000 FEET
WITH NO SIGNIFICANT WEATHER AND/OR OBSTRUCTIONS TO VISIBILITY.

WYZ001-240300-
YELLOWSTONE NATIONAL PARK

CITY           SKY/WX    TMP DP  RH WIND       PRES   REMARKS
LK YELLOWSTONE   N/A      5   0  79 CALM      29.89R
W YELLOWSTONE  NOT AVBL

$$
WYZ002>013-054>058-071-098>099-240300-
NORTHERN WYOMING

CITY           SKY/WX    TMP DP  RH WIND       PRES   REMARKS
JACKSON        FAIR      13   2  61 W6        29.94R WCI   4
CODY           FAIR      11   5  77 CALM      29.90R
GREYBULL       FAIR       2  -2  83 NW3       29.96S
WORLAND        FAIR       5   0  79 S8        29.95S WCI  -8
SHERIDAN       FAIR       1  -5  75 CALM      29.93F
BUFFALO        FAIR      14   5  67 SW6       29.89S WCI   5
GILLETTE       FAIR      15   6  67 S23       29.92F WCI  -3
HULETT         FAIR      18   3  53 MISG      29.96F
NEWCASTLE      FAIR       7   0  72 E5        30.02F WCI  -2

$$
WYZ014>020-022>026-101>103-240300-
CENTRAL WYOMING

CITY           SKY/WX    TMP DP  RH WIND       PRES   REMARKS
BIG PINEY      FAIR       9   2  73 N14       29.90R WCI  -7
PINEDALE       FAIR       9   0  66 NW12      29.89R WCI  -6
DUBOIS           N/A    N/A N/A N/A MISG        N/A
LANDER         FAIR      13   5  70 SW3       29.90S
RIVERTON       FAIR      11   1  64 CALM      29.92S
CASPER         LGT SNOW  15  12  88 N3        29.91S FOG
DOUGLAS        CLOUDY    15  10  80 NW8       29.94F WCI   4

$$
WYZ021-027>030-104>119-240300-
SOUTHERN WYOMING

CITY           SKY/WX    TMP DP  RH WIND       PRES   REMARKS
EVANSTON       CLOUDY    12  10  92 SW7       29.96R FOG     WCI   1
ROCK SPRINGS   LGT SNOW  13   9  84 SW17      29.91S FOG     WCI  -4
DIXON          MOCLDY    23  17  79 W7        29.90R WCI  14
RAWLINS        CLOUDY    17  14  88 W3        29.86R FOG
SARATOGA       CLOUDY    19  19 100 W5        29.85S WCI  13
LARAMIE        FAIR      16  12  84 SE22G29   29.81S WCI  -2
CHEYENNE       FAIR      22  18  85 E3        29.90S
TORRINGTON     FAIR      20  14  77 E10       29.99S WCI   9
PINE BLUFFS    CLOUDY    23  18  80 E9        29.95S WCI  13

$$




USA.gov is the U.S. government's official web portal to all federal, state and local government web resources and services.